[[{"header":{"parameterUnit":"m.s-1","parameterCategory":1,"la1":30.2991,"la2":30.254,"lo1":-89.0895,"lo2":-89.0444,"dy":0.0017,"dx":0.0017,"nx":28,"ny":28,"refTime":"2024-11-29T09:00:00:Z","depth":0,"parameterNumber":2,"parameterNumberName":"U-component_of_WINDS"},"data":[0,0,0,0,0,0,0,0,0,0,0,0,0,0,0,0,0,0,0,0,0,0,0,0,0,0,0,0,0,0,0,0,0,0,0,0,0,0,0,0,0,0,0,0,0,0,0,0,0,0,0,0,0,0,0,0,0,0,-2.5673,-2.5673,0,-2.5678,-2.5678,-2.5678,-2.5588,-2.5585,-2.5583,-2.558,-2.559,-2.5593,-2.5595,0,0,0,0,0,0,0,0,0,0,0,0,0,-2.5588,-2.559,-2.5673,-2.5673,-2.5673,-2.5678,-2.5678,-2.5678,-2.5588,-2.5585,-2.5582,-2.5579,-2.5589,-2.5592,-2.5596,0,0,0,0,0,0,0,0,0,0,0,0,0,-2.5613,-2.5591,-2.5673,-2.5628,-2.5624,-2.5678,-2.5678,-2.5678,-2.5589,-2.5585,-2.5581,-2.5578,-2.5588,-2.5592,-2.5596,-2.5694,0,0,-2.5608,-2.5609,0,0,0,0,0,0,0,0,-2.5611,-2.5616,-2.5635,-2.5631,-2.5627,-2.5628,-2.5652,-2.5684,-2.559,-2.5602,-2.558,-2.5576,-2.5606,-2.5608,-2.5618,-2.5694,-2.5695,-2.5608,-2.561,-2.5612,-2.5613,0,0,0,0,0,0,0,-2.561,-2.5615,-2.5675,-2.5635,-2.563,-2.5609,-2.5609,-2.5658,-2.5625,-2.5601,-2.5594,-2.5596,-2.5603,-2.5614,-2.5617,-2.5695,-2.5608,-2.5611,-2.5614,-2.5615,-2.5855,-2.5858,0,0,0,0,0,0,-2.5613,-2.5614,-2.5675,-2.5675,-2.561,-2.5614,-2.5613,-2.5632,-2.5624,-2.562,-2.5599,-2.5592,-2.5609,-2.5613,-2.5617,-2.5733,-2.5612,-2.5616,-2.5618,-2.5851,-2.5855,-2.586,0,0,0,0,0,0,-2.5612,-2.562,-2.5674,-2.5643,-2.5648,-2.5619,-2.5641,-2.5634,-2.5644,-2.5623,-2.5617,-2.5616,-2.5607,-2.5612,-2.5676,-2.5732,-2.5617,-2.5621,-2.5846,-2.5852,-2.5858,-2.5965,0,0,0,0,0,0,-2.561,-2.562,-2.5655,-2.5644,-2.565,-2.5732,-2.5644,-2.5637,-2.5651,-2.5641,-2.5637,-2.5633,-2.5604,-2.567,-2.568,-2.5735,-2.5624,-2.5841,-2.5849,-2.5856,-2.5956,-2.5974,-2.5989,0,0,0,0,0,-2.5607,-2.5686,-2.5658,-2.5666,-2.5694,-2.5735,-2.5739,-2.5703,-2.5656,-2.5692,-2.5679,-2.5633,-2.5724,-2.5678,-2.5687,-2.5745,-2.5837,-2.5846,-2.5855,-2.5949,-2.597,-2.5988,0,0,0,0,0,0,-2.5705,-2.5683,-2.5652,-2.5729,-2.5735,-2.572,-2.5765,-2.5726,-2.5746,-2.5737,-2.5693,-2.5693,-2.5764,-2.5761,-2.5709,-2.584,-2.5772,-2.5784,-2.584,-2.5861,-2.5877,-2.5877,-2.5627,0,0,0,0,0,-2.5736,-2.577,-2.5749,-2.5819,-2.5823,-2.5794,-2.581,-2.5782,-2.5787,-2.5789,-2.578,-2.5787,-2.5818,-2.5839,-2.5865,-2.5955,-2.5954,-2.5999,-2.6016,-2.6029,-2.604,-2.6089,-2.611,-2.589,-2.589,-2.5889,0,0,-2.58,-2.5792,-2.5816,-2.5839,-2.584,-2.5877,-2.5796,-2.5839,-2.5867,-2.5796,-2.5856,-2.585,-2.5855,-2.5933,-2.5966,-2.5932,-2.61,-2.6041,-2.6052,-2.6055,-2.6101,-2.6122,-2.614,-2.5896,-2.5895,-2.5894,0,0,-2.5935,-2.5932,-2.599,-2.5993,-2.5995,-2.5975,-2.5989,-2.5981,-2.5974,-2.6033,-2.598,-2.6014,-2.6066,-2.6073,-2.6083,-2.6222,-2.6182,-2.6232,-2.6319,-2.6367,-2.6384,-2.64,-2.6451,-2.647,-2.6243,-2.6243,-2.6243,0,-2.6014,-2.6067,-2.6026,-2.6073,-2.6085,-2.6021,-2.6081,-2.6086,-2.6098,-2.6109,-2.6069,-2.6135,-2.6134,-2.6213,-2.6248,-2.6257,-2.6274,-2.6233,-2.6385,-2.64,-2.6413,-2.6462,-2.6482,-2.625,-2.6249,-2.6248,-2.6248,0,-2.6166,-2.6204,-2.6251,-2.6263,-2.6281,-2.6334,-2.6303,-2.6326,-2.6297,-2.6281,-2.6344,-2.634,-2.6366,-2.6382,-2.6354,-2.6458,-2.6437,-2.6392,-2.6323,-2.6441,-2.6487,-2.6505,-2.6259,-2.6256,-2.6254,-2.6253,0,0,-2.6364,-2.6352,-2.6371,-2.6376,-2.6374,-2.6403,-2.6455,-2.6479,-2.6501,-2.6511,-2.6554,-2.6601,-2.656,-2.6571,-2.6544,-2.6586,-2.6699,-2.6536,-2.6535,-2.6568,-2.6817,-2.6852,-2.6874,-2.6672,-2.6675,-2.6678,-2.6817,0,-2.6497,-2.6583,-2.6547,-2.6637,-2.6673,-2.6613,-2.6658,-2.6663,-2.6651,-2.668,-2.6667,-2.6701,-2.6643,-2.665,-2.6689,-2.6677,-2.6749,-2.6666,-2.6714,-2.6716,-2.6716,-2.6897,-2.6934,-2.7066,-2.6834,-2.6837,-2.6839,0,-2.6664,-2.668,-2.6774,-2.6767,-2.6781,-2.6822,-2.6842,-2.687,-2.6875,-2.6863,-2.6877,-2.684,-2.6892,-2.6823,-2.6895,-2.684,-2.6857,-2.6854,-2.6859,-2.6863,-2.6786,-2.6909,-2.7106,-2.7127,-2.6866,-2.6864,-2.6862,0,-2.6801,-2.6847,-2.6909,-2.6915,-2.6908,-2.6939,-2.6938,-2.6939,-2.6956,-2.6974,-2.6985,-2.701,-2.7024,-2.7044,-2.7016,-2.6967,-2.7093,-2.702,-2.7087,-2.7088,-2.7117,-2.7116,-2.7323,-2.7126,-2.7125,-2.7125,-2.7125,0,-2.6955,-2.7015,-2.6971,-2.701,-2.7076,-2.7035,-2.7102,-2.7094,-2.7096,-2.7134,-2.7083,-2.712,-2.7079,-2.7113,-2.7091,-2.7155,-2.7162,-2.7155,-2.7149,-2.7161,-2.7162,-2.7173,-2.7164,-2.713,-2.7129,-2.7128,-2.7127,0,-2.712,-2.7093,-2.7157,-2.7145,-2.7144,-2.7193,-2.7184,-2.722,-2.7204,-2.7252,-2.7261,-2.7237,-2.7273,-2.7247,-2.7283,-2.7269,-2.7354,-2.7334,-2.7353,-2.7348,-2.7416,-2.7411,-2.7639,-2.7667,-2.745,-2.7452,-2.7454,0,-2.722,-2.7265,-2.7258,-2.7279,-2.7281,-2.7315,-2.7332,-2.7295,-2.7315,-2.7325,-2.7361,-2.7393,-2.7417,-2.7479,-2.7465,-2.7494,-2.7475,-2.7553,-2.7479,-2.7491,-2.7479,-2.7478,-2.7483,-2.7569,-2.7571,-2.7573,-2.7575,0,-2.7403,-2.7387,-2.7413,-2.7435,-2.7457,-2.7473,-2.7485,-2.7506,-2.7467,-2.7493,-2.753,-2.7548,-2.7586,-2.7619,-2.7643,-2.7643,-2.7605,-2.7598,-2.7615,-2.7629,-2.7638,-2.7636,-2.7395,-2.7593,-2.7592,-2.759,-2.7589,-2.7588,-2.754,-2.7577,-2.7579,-2.761,-2.7615,-2.7628,-2.7662,-2.765,-2.7679,-2.7706,-2.7682,-2.7727,-2.7732,-2.7759,-2.7765,-2.7801,-2.7769,-2.7793,-2.78,-2.7807,-2.7818,-2.7631,-2.7805,-2.7804,-2.7804,-2.7803,-2.7803,0,-2.7721,-2.7719,-2.7748,-2.7766,-2.7792,-2.775,-2.7762,-2.7787,-2.7826,-2.7834,-2.7858,-2.7902,-2.7934,-2.7923,-2.7953,-2.7984,-2.7967,-2.7993,-2.7991,-2.7993,-2.7843,-2.7826,-2.8006,-2.8006,-2.8006,-2.8006,-2.8006,-2.8006,-2.7818,-2.788,-2.7865,-2.7931,-2.7928,-2.797,-2.7981,-2.7993,-2.7999,-2.805,-2.8076,-2.8068,-2.807,-2.8099,-2.8128,-2.8124,-2.8138,-2.8172,-2.8162,-2.8023,-2.8003,-2.7984,-2.7968,-2.8174,-2.8175,-2.8308,-2.8309,-2.831]},{"header":{"parameterUnit":"m.s-1","parameterCategory":1,"la1":30.2991,"la2":30.254,"lo1":-89.0895,"lo2":-89.0444,"dy":0.0017,"dx":0.0017,"nx":28,"ny":28,"refTime":"2024-11-29T09:00:00:Z","depth":0,"parameterNumber":3,"parameterNumberName":"V-component_of_WINDS"},"data":[0,0,0,0,0,0,0,0,0,0,0,0,0,0,0,0,0,0,0,0,0,0,0,0,0,0,0,0,0,0,0,0,0,0,0,0,0,0,0,0,0,0,0,0,0,0,0,0,0,0,0,0,0,0,0,0,0,0,-0.7839,-0.784,0,-0.7915,-0.7916,-0.7917,-0.7927,-0.7926,-0.7926,-0.7925,-0.8004,-0.8007,-0.801,0,0,0,0,0,0,0,0,0,0,0,0,0,-0.7705,-0.7707,-0.7839,-0.784,-0.7841,-0.7915,-0.7916,-0.7917,-0.7927,-0.7926,-0.7926,-0.7925,-0.8003,-0.8007,-0.801,0,0,0,0,0,0,0,0,0,0,0,0,0,-0.777,-0.7708,-0.7839,-0.7855,-0.7857,-0.7914,-0.7916,-0.7917,-0.7928,-0.7926,-0.7925,-0.7924,-0.8002,-0.8006,-0.8011,-0.8057,0,0,-0.8023,-0.8025,0,0,0,0,0,0,0,0,-0.7766,-0.7775,-0.7852,-0.7854,-0.7857,-0.791,-0.7897,-0.7964,-0.7928,-0.7901,-0.7925,-0.7924,-0.7974,-0.7981,-0.7997,-0.8061,-0.8064,-0.8024,-0.8026,-0.8028,-0.8029,0,0,0,0,0,0,0,-0.7762,-0.7772,-0.7869,-0.7853,-0.7856,-0.7859,-0.7867,-0.791,-0.7943,-0.7903,-0.7904,-0.7913,-0.7975,-0.7993,-0.7999,-0.8066,-0.8023,-0.8027,-0.803,-0.8031,-0.8172,-0.8173,0,0,0,0,0,0,-0.7754,-0.7768,-0.7867,-0.7871,-0.7808,-0.7862,-0.7871,-0.7894,-0.7942,-0.7948,-0.7914,-0.7913,-0.7987,-0.7994,-0.8002,-0.806,-0.8028,-0.8032,-0.8034,-0.8171,-0.8172,-0.8173,0,0,0,0,0,0,-0.7751,-0.7763,-0.7864,-0.782,-0.7833,-0.7866,-0.7891,-0.7896,-0.7914,-0.795,-0.7956,-0.7926,-0.7986,-0.7996,-0.8043,-0.8063,-0.8034,-0.8037,-0.8169,-0.8171,-0.8173,-0.8177,0,0,0,0,0,0,-0.7747,-0.7762,-0.778,-0.782,-0.7835,-0.7904,-0.7893,-0.7899,-0.7921,-0.7921,-0.7963,-0.7969,-0.7986,-0.8037,-0.8047,-0.8068,-0.8041,-0.8168,-0.817,-0.8172,-0.8175,-0.8179,-0.8182,0,0,0,0,0,-0.7742,-0.7778,-0.7781,-0.7792,-0.7858,-0.7905,-0.7913,-0.7932,-0.7923,-0.7941,-0.7964,-0.7968,-0.8059,-0.8042,-0.8054,-0.8076,-0.8166,-0.8169,-0.8172,-0.8174,-0.8178,-0.8182,0,0,0,0,0,0,-0.774,-0.7784,-0.7787,-0.7837,-0.7867,-0.7906,-0.7931,-0.7936,-0.7969,-0.7968,-0.7989,-0.7999,-0.8045,-0.8065,-0.8045,-0.8124,-0.8112,-0.8117,-0.8109,-0.8114,-0.8117,-0.8112,-0.8044,0,0,0,0,0,-0.7745,-0.7779,-0.7815,-0.7856,-0.7871,-0.7898,-0.7919,-0.793,-0.7962,-0.7975,-0.8002,-0.8033,-0.8069,-0.8092,-0.8127,-0.8178,-0.8187,-0.8199,-0.8202,-0.8204,-0.8209,-0.8238,-0.8243,-0.8183,-0.8183,-0.8183,0,0,-0.7756,-0.7784,-0.7805,-0.7856,-0.7881,-0.7915,-0.7909,-0.7946,-0.7972,-0.7981,-0.8027,-0.8048,-0.8084,-0.8133,-0.8156,-0.8152,-0.8228,-0.8208,-0.821,-0.8213,-0.8241,-0.8247,-0.8252,-0.8184,-0.8184,-0.8184,0,0,-0.7795,-0.7819,-0.7856,-0.788,-0.7917,-0.7935,-0.7944,-0.7982,-0.7996,-0.8042,-0.805,-0.8081,-0.8142,-0.8168,-0.8189,-0.8236,-0.8241,-0.8247,-0.8265,-0.8292,-0.8297,-0.8301,-0.8319,-0.8325,-0.8251,-0.8251,-0.8251,0,-0.7805,-0.7857,-0.7874,-0.7911,-0.7933,-0.7942,-0.798,-0.8003,-0.8049,-0.8065,-0.8058,-0.8135,-0.816,-0.8215,-0.8227,-0.8243,-0.8254,-0.8243,-0.8295,-0.8299,-0.8303,-0.832,-0.8327,-0.8252,-0.8252,-0.8252,-0.8252,0,-0.7867,-0.7903,-0.7928,-0.7972,-0.7998,-0.8034,-0.8057,-0.8081,-0.8089,-0.8108,-0.8155,-0.8185,-0.8226,-0.824,-0.8249,-0.8297,-0.8293,-0.829,-0.8279,-0.831,-0.8326,-0.8332,-0.8253,-0.8252,-0.8252,-0.8252,0,0,-0.7908,-0.796,-0.7969,-0.7989,-0.803,-0.8059,-0.8096,-0.8135,-0.8155,-0.8186,-0.8219,-0.8269,-0.8267,-0.8291,-0.8303,-0.8327,-0.8362,-0.8321,-0.8322,-0.8328,-0.8417,-0.842,-0.8427,-0.8365,-0.8366,-0.8367,-0.8415,0,-0.7952,-0.8018,-0.8034,-0.8091,-0.8125,-0.8133,-0.8165,-0.8194,-0.8211,-0.8243,-0.8262,-0.8298,-0.8292,-0.8307,-0.833,-0.8353,-0.8381,-0.835,-0.8396,-0.8398,-0.8388,-0.8436,-0.8439,-0.8482,-0.8421,-0.8422,-0.8423,0,-0.8013,-0.8045,-0.8105,-0.8141,-0.8155,-0.8184,-0.8222,-0.8251,-0.8284,-0.8295,-0.8321,-0.833,-0.8369,-0.8355,-0.8409,-0.8388,-0.8407,-0.8421,-0.8423,-0.8429,-0.8413,-0.8444,-0.8496,-0.8503,-0.8433,-0.8432,-0.8431,0,-0.8038,-0.8096,-0.8139,-0.8156,-0.8199,-0.8219,-0.8238,-0.8269,-0.8292,-0.8324,-0.8339,-0.8376,-0.8396,-0.8425,-0.8444,-0.8431,-0.8497,-0.8484,-0.8508,-0.8508,-0.8523,-0.8522,-0.858,-0.8533,-0.8533,-0.8533,-0.8533,0,-0.8086,-0.8122,-0.8151,-0.8177,-0.8219,-0.8236,-0.8277,-0.8296,-0.8323,-0.8354,-0.8363,-0.8392,-0.8415,-0.8447,-0.8462,-0.8505,-0.8514,-0.8525,-0.8528,-0.8525,-0.8523,-0.8539,-0.8537,-0.8535,-0.8534,-0.8534,-0.8534,0,-0.8121,-0.8141,-0.8189,-0.8225,-0.8235,-0.8264,-0.8295,-0.8322,-0.8339,-0.8378,-0.8388,-0.8416,-0.8454,-0.8475,-0.8523,-0.8533,-0.8582,-0.8583,-0.8571,-0.8573,-0.8596,-0.8594,-0.8667,-0.8678,-0.8623,-0.8623,-0.8624,0,-0.8151,-0.8179,-0.8218,-0.8239,-0.8258,-0.8292,-0.8315,-0.8333,-0.8357,-0.8395,-0.8417,-0.8455,-0.8487,-0.8548,-0.8573,-0.8609,-0.8613,-0.8636,-0.8618,-0.8614,-0.8614,-0.8613,-0.8616,-0.8639,-0.864,-0.864,-0.864,0,-0.8203,-0.8211,-0.8243,-0.8279,-0.8306,-0.8335,-0.8364,-0.8381,-0.8404,-0.843,-0.8468,-0.8493,-0.8541,-0.858,-0.8618,-0.8638,-0.8644,-0.8645,-0.8653,-0.865,-0.8642,-0.8647,-0.858,-0.8644,-0.8644,-0.8643,-0.8643,-0.8643,-0.8237,-0.8263,-0.8294,-0.8329,-0.8353,-0.8379,-0.8406,-0.8426,-0.8458,-0.8499,-0.8508,-0.8549,-0.858,-0.8632,-0.8653,-0.8685,-0.8681,-0.8692,-0.8695,-0.8698,-0.8699,-0.8635,-0.8692,-0.8692,-0.8692,-0.8692,-0.8692,0,-0.829,-0.831,-0.8343,-0.8382,-0.841,-0.8411,-0.8443,-0.8467,-0.8502,-0.8531,-0.8562,-0.8606,-0.8643,-0.867,-0.8708,-0.8729,-0.8732,-0.8738,-0.8737,-0.8742,-0.8701,-0.8691,-0.8735,-0.8735,-0.8735,-0.8735,-0.8735,-0.8734,-0.8321,-0.8364,-0.8376,-0.8431,-0.8451,-0.849,-0.8508,-0.8533,-0.8556,-0.8605,-0.8635,-0.8652,-0.868,-0.872,-0.8754,-0.8761,-0.8775,-0.8781,-0.8788,-0.8749,-0.8745,-0.8741,-0.8731,-0.8783,-0.8783,-0.8827,-0.8827,-0.8828]}]]